RH
20 16 15 14 14 14 14 15 16 15 14 16 18 19 18 16 17 16 15 17 17 15 13 11 12 19 25 30 32 34 44 56 59 61 65 65 65 68 71 77 80 83 94 100 100 100 100 100 100 100 100 97 97 100 99 95 96 100 98 92 90 94 96 95 95 98 101 100 99 100 98 99 101 95 90 89 66 29 16 19 14 9 9 5 5 12 14
23 20 18 16 15 14 13 14 14 14 15 15 16 19 17 15 17 16 16 19 19 16 12 11 20 32 31 31 38 40 45 56 59 60 64 64 65 67 69 76 80 84 93 99 100 100 100 100 100 100 100 97 94 99 99 94 96 100 99 94 91 91 93 96 98 100 100 97 97 97 95 96 99 91 86 84 61 27 19 23 16 9 8 7 6 5 3
27 23 20 19 18 16 15 14 12 13 15 15 16 19 18 17 20 20 17 19 19 16 11 10 21 33 32 32 40 41 44 53 58 60 62 63 65 66 68 75 81 87 95 99 100 100 100 100 100 100 101 98 94 98 99 94 94 99 100 95 90 88 93 98 99 97 96 95 95 94 91 92 97 93 86 79 57 30 23 26 17 7 6 7 8 4 3
31 28 28 26 22 20 20 18 15 13 14 17 18 18 18 19 22 21 20 21 19 14 11 10 12 19 22 25 33 41 46 51 56 60 61 63 66 66 68 76 81 88 97 100 99 100 100 100 100 99 100 96 93 99 99 91 92 100 100 95 89 87 90 92 92 92 95 95 93 91 89 91 98 93 82 74 57 32 23 22 14 6 5 10 10 6 4
34 33 33 31 27 28 27 21 17 16 16 17 17 17 17 18 20 21 20 18 16 12 10 11 10 10 17 24 30 40 48 51 56 60 59 62 66 67 70 77 79 82 92 100 100 100 100 100 100 100 99 95 94 98 99 94 94 96 94 91 89 88 88 87 87 91 96 95 91 87 85 88 90 81 72 69 52 29 22 20 12 8 11 13 11 6 5
36 33 33 35 34 32 30 24 17 14 15 16 18 19 18 17 18 19 17 14 13 12 10 12 12 12 20 31 36 42 50 54 57 59 59 61 66 68 71 77 78 79 88 98 100 100 100 100 100 100 99 96 94 96 98 97 93 88 88 93 93 89 88 89 90 92 95 94 89 84 82 83 80 72 67 61 42 24 21 17 14 18 19 13 8 6 5
32 31 34 41 39 32 35 36 24 15 14 14 16 17 15 16 18 17 16 14 12 13 12 12 16 21 27 35 41 46 52 55 57 59 60 62 67 71 73 78 80 79 85 96 100 100 100 100 100 100 98 97 98 99 96 93 91 90 94 99 97 92 92 94 94 93 92 92 88 82 81 81 75 68 64 54 38 28 23 20 22 24 16 7 5 5 5
33 32 32 38 40 37 43 45 33 23 18 14 18 20 16 16 17 15 16 14 11 14 12 10 21 34 36 35 40 49 56 59 60 60 60 64 70 72 74 80 82 80 84 93 99 100 100 100 100 99 96 93 95 94 88 84 87 93 99 100 95 93 94 94 95 92 90 91 89 82 81 80 75 72 66 54 43 35 28 26 25 17 6 4 5 4 4
35 34 29 27 31 35 43 46 36 27 24 20 20 23 20 16 14 13 13 13 14 13 10 15 33 45 40 32 34 47 58 61 61 59 60 67 72 71 73 79 81 82 86 92 97 99 100 100 100 100 96 91 90 90 85 82 85 91 97 97 93 93 93 91 91 90 90 92 90 83 80 77 73 71 66 58 52 43 31 26 19 8 3 5 5 3 3
33 35 31 24 26 32 39 44 38 31 34 32 23 21 21 17 14 15 14 14 15 12 13 28 43 45 36 23 23 42 58 61 63 63 61 67 72 71 74 79 80 82 87 91 95 99 101 100 100 101 97 89 89 92 90 87 87 89 93 94 92 93 93 88 86 88 92 93 90 84 80 76 72 68 66 65 59 43 30 23 14 7 5 4 4 4 4
33 36 35 28 30 36 39 43 41 35 41 40 27 21 20 13 11 15 15 15 15 12 19 37 43 35 24 16 23 48 61 61 65 68 65 69 73 71 72 77 80 82 85 91 96 99 100 99 100 101 95 87 87 92 93 92 91 90 92 95 94 93 93 91 88 90 94 94 91 85 80 76 73 70 69 69 56 40 34 29 17 9 5 4 4 4 3
34 35 35 30 33 37 40 45 42 38 46 47 32 21 20 17 15 16 15 14 16 17 27 40 38 27 22 24 37 59 67 66 70 73 70 70 73 72 73 77 80 83 88 93 97 99 100 100 100 97 90 85 85 85 87 92 95 95 97 97 93 91 94 96 94 94 96 95 91 86 81 79 77 74 75 69 51 42 44 35 18 9 5 4 5 4 3
34 33 32 31 32 35 40 45 42 40 45 42 27 21 29 35 33 30 26 21 20 26 34 35 30 30 37 40 44 56 69 72 73 74 74 73 72 73 76 79 81 84 90 95 97 98 99 100 100 95 88 85 86 86 88 94 99 99 99 97 93 91 93 97 97 98 99 97 92 86 81 81 80 79 81 71 50 48 54 37 14 7 6 4 5 4 4
32 29 31 33 33 37 44 45 39 37 36 30 26 35 48 50 47 47 44 38 35 40 41 37 37 44 50 48 48 62 76 77 71 73 76 75 75 76 78 82 84 84 88 93 93 92 95 98 101 97 89 86 89 94 98 99 99 98 97 96 96 94 93 95 97 100 101 98 94 87 83 85 86 83 82 71 55 57 62 39 13 6 6 5 5 4 4
32 29 33 36 36 46 57 51 37 34 38 40 44 51 54 52 52 53 52 50 51 49 44 46 53 58 58 53 56 73 85 80 75 80 81 78 77 80 82 85 85 84 88 90 89 91 95 99 100 96 89 87 90 94 96 94 92 94 95 96 98 97 95 96 98 100 101 99 95 88 84 87 88 86 83 73 64 67 61 34 11 6 6 6 7 5 5
35 33 37 40 42 53 63 56 46 47 53 59 62 59 52 51 56 54 49 52 59 58 55 57 59 61 61 57 58 70 81 80 77 80 83 84 83 82 83 84 85 85 86 86 87 93 98 100 99 94 88 88 89 89 90 89 89 90 93 95 97 96 95 96 99 100 100 99 95 88 86 87 88 89 84 73 70 71 57 29 11 8 9 9 8 6 6
34 34 37 42 50 60 64 61 61 64 64 67 69 63 53 53 59 58 52 54 61 65 66 65 60 59 62 63 65 71 77 80 79 75 75 79 82 80 79 82 84 84 83 85 90 97 99 100 99 95 91 90 89 88 89 90 89 90 94 97 96 94 93 95 100 100 100 100 96 89 87 87 87 89 85 74 73 75 60 33 15 10 10 10 7 6 8
33 34 40 47 56 62 62 62 65 66 65 66 67 62 55 55 61 61 58 57 59 62 65 63 59 59 63 66 71 76 78 81 86 83 78 80 84 82 78 80 84 81 79 84 93 98 100 101 99 96 94 92 91 91 92 92 91 93 98 98 95 93 95 97 100 100 100 100 97 90 87 87 87 89 87 79 75 74 61 39 21 14 11 9 9 11 11
37 37 47 55 59 62 62 61 62 64 66 65 62 60 60 61 60 58 56 56 57 59 63 64 58 58 64 68 71 77 82 82 81 81 82 82 84 83 79 80 83 81 79 86 95 98 99 101 100 97 95 94 93 93 92 92 94 97 100 98 94 94 97 99 100 100 100 100 96 90 88 89 88 90 89 82 74 68 59 47 33 20 11 8 16 24 26
41 42 52 57 56 58 61 60 61 64 67 64 57 56 59 59 58 56 54 55 59 61 67 70 65 61 68 71 70 74 82 81 77 78 81 82 82 81 79 82 86 83 80 87 96 100 100 100 100 98 96 95 95 93 92 93 95 99 100 99 96 96 98 100 100 100 100 98 93 89 88 89 90 91 89 83 75 67 59 49 39 30 21 15 20 29 40
42 42 50 53 54 57 57 57 62 65 66 65 63 63 64 62 60 60 58 57 57 57 61 70 72 67 70 75 73 72 77 80 78 80 83 86 84 79 79 88 91 84 82 89 96 100 100 99 99 99 98 96 93 92 93 94 95 98 101 100 99 99 99 100 100 100 101 98 92 89 87 87 90 91 86 80 76 71 60 47 39 39 35 23 19 27 42
41 40 47 54 58 58 54 56 63 63 61 63 65 66 67 63 58 59 62 61 59 54 54 64 72 70 71 77 77 74 77 81 82 84 88 89 85 81 85 96 95 88 89 95 98 100 101 100 98 98 98 97 93 90 91 92 94 98 100 99 100 100 100 100 100 100 99 97 92 88 87 87 89 89 84 78 76 73 64 52 45 43 36 23 20 28 41
44 45 50 54 54 54 55 61 65 62 61 63 62 60 62 60 54 53 57 61 65 62 56 58 67 70 70 74 76 76 80 85 88 90 90 88 89 91 95 100 98 95 97 100 99 99 101 99 98 98 98 98 96 92 90 92 95 98 98 97 99 100 100 100 100 99 98 95 91 88 88 89 89 87 84 82 81 78 72 63 56 51 43 36 31 27 33
51 52 54 55 54 55 57 62 64 61 57 58 58 58 60 60 55 50 49 52 60 66 63 58 61 67 72 76 78 78 81 86 90 92 92 92 95 99 100 100 100 99 100 100 100 100 100 99 100 100 98 99 99 96 93 94 97 99 99 99 99 100 100 100 100 99 98 94 90 88 90 93 92 89 86 85 85 84 80 73 67 62 58 53 44 28 26
57 58 60 61 62 62 60 58 60 59 54 51 51 52 52 54 53 49 48 47 48 55 62 60 56 59 67 73 77 81 88 93 93 94 96 97 98 100 100 100 100 100 100 100 100 100 100 100 100 100 100 100 100 98 95 95 98 100 101 100 100 100 100 99 100 100 98 94 90 90 92 93 92 88 87 86 86 85 81 77 74 72 69 64 52 35 26
62 64 65 64 63 63 60 57 56 58 56 53 54 51 49 50 50 47 46 46 42 44 52 55 51 52 56 61 65 72 80 87 91 94 97 99 100 101 100 100 100 100 100 100 100 100 100 100 100 100 100 100 99 99 98 96 96 99 100 100 100 100 100 99 99 99 97 94 90 89 91 91 89 87 87 89 88 81 71 69 71 73 73 70 58 44 30
65 68 68 63 60 62 65 65 64 64 62 60 58 56 51 51 53 50 48 48 47 44 47 51 52 53 54 56 59 62 65 71 82 92 97 97 99 101 100 99 101 101 99 100 100 100 100 101 100 100 100 99 98 100 99 96 95 98 100 100 100 100 100 99 97 97 96 93 90 91 93 92 89 86 85 86 84 72 59 57 63 65 63 58 48 37 27
66 70 69 66 65 65 66 67 67 68 66 60 55 54 53 52 52 53 53 54 55 53 51 52 55 55 55 57 59 61 62 65 76 89 96 96 98 101 101 99 100 100 100 101 101 99 100 100 99 99 100 100 100 100 100 98 98 99 100 100 100 100 100 100 98 97 95 93 91 92 92 90 86 84 80 77 74 65 52 49 52 52 48 40 29 22 18
65 68 70 71 73 69 61 59 60 61 60 56 51 50 51 49 47 49 52 56 59 59 56 55 57 58 58 59 60 62 65 67 72 84 94 98 99 99 100 100 100 100 100 100 99 99 100 99 99 100 100 99 99 100 99 98 97 97 98 99 100 100 100 100 100 98 95 92 89 89 89 87 83 79 73 67 64 62 57 51 47 44 42 35 23 14 13
62 64 67 70 73 70 62 60 60 57 54 53 51 49 48 47 46 47 49 54 59 61 58 57 58 59 59 60 60 62 66 68 71 76 86 96 101 101 100 100 100 100 100 101 100 100 100 99 100 100 99 96 96 97 96 96 95 95 95 95 96 97 97 96 97 96 93 90 88 87 87 84 79 76 73 67 63 62 60 56 49 45 45 43 28 11 11
54 56 64 67 67 65 60 57 56 54 52 51 48 45 44 44 43 44 47 53 59 61 58 57 58 59 60 60 60 60 61 66 69 70 76 87 96 99 100 100 99 98 98 98 99 99 99 100 100 98 95 94 94 93 93 94 95 95 93 92 94 95 94 93 93 91 89 89 88 87 86 82 78 77 73 67 63 61 60 58 52 43 45 48 34 12 12
53 60 66 63 61 62 61 55 51 50 49 46 43 41 41 41 40 41 44 49 55 59 59 58 56 56 57 58 60 61 60 62 64 68 72 78 84 92 98 99 96 95 96 96 96 96 97 98 98 93 89 90 91 90 91 93 94 93 91 91 92 92 91 91 90 88 88 89 88 86 83 78 75 73 65 59 61 64 64 66 62 49 47 53 44 28 29
60 69 71 65 63 66 64 56 49 47 46 45 45 45 45 44 44 44 42 43 49 57 60 59 56 54 54 56 57 59 60 60 61 64 68 71 76 86 96 99 97 96 96 94 93 94 96 96 91 85 83 87 90 90 90 92 93 92 90 90 90 88 87 88 88 88 89 88 86 85 81 73 68 66 60 55 62 67 67 69 68 57 50 49 42 37 43
55 64 69 69 67 64 57 50 47 47 47 47 48 49 49 48 49 48 43 40 44 50 54 56 57 55 54 54 54 55 61 68 69 66 66 69 74 81 89 96 99 98 95 91 90 92 94 91 84 80 83 87 88 88 90 91 92 91 90 88 87 85 85 87 88 88 88 87 84 83 80 72 67 66 58 50 53 58 59 60 60 53 45 36 27 27 36
54 58 62 64 64 60 53 49 48 49 49 49 51 52 52 49 47 45 40 38 44 51 54 57 60 59 57 58 59 60 64 70 70 66 65 69 72 74 78 85 90 91 89 88 90 93 93 89 85 84 86 86 85 85 87 88 89 90 89 87 85 83 84 86 86 86 86 86 83 81 78 72 67 63 55 48 48 51 52 53 53 52 47 37 26 25 33
56 58 58 57 55 51 48 49 50 50 51 52 53 53 51 46 43 40 37 40 52 62 64 64 66 65 64 65 65 64 64 65 66 67 69 72 74 76 77 79 84 87 86 86 88 90 91 89 86 84 84 85 85 85 84 85 86 87 87 86 84 83 82 82 83 83 83 83 82 79 74 69 64 59 54 52 52 52 52 53 53 53 53 48 40 36 40
56 62 63 58 49 42 41 45 48 50 54 56 56 55 51 44 41 42 46 53 62 68 70 70 69 65 61 60 59 57 58 58 58 60 64 67 70 75 79 82 86 88 87 85 86 87 86 84 83 83 84 87 88 85 84 84 83 81 82 84 84 83 81 79 78 80 80 81 81 79 73 66 63 60 55 54 55 57 58 56 52 49 52 55 54 50 45
54 56 56 53 46 42 42 42 43 48 55 57 54 51 49 46 45 50 58 63 65 63 63 64 61 57 56 57 54 51 50 51 50 51 51 52 57 67 79 87 90 88 83 81 84 87 85 83 83 85 86 87 86 82 82 82 79 76 79 83 83 82 80 78 77 78 79 79 80 78 71 65 62 59 54 54 61 64 59 54 51 49 49 51 51 46 40
50 48 49 49 47 46 47 48 49 53 59 60 55 49 48 50 54 59 64 65 63 61 61 61 60 60 62 65 62 57 51 48 48 49 48 46 47 55 66 74 77 78 81 82 84 86 86 83 83 84 85 83 81 79 80 81 81 80 81 83 83 82 81 79 76 78 80 80 79 77 70 65 64 63 60 61 66 65 55 48 49 51 51 51 48 43 41
52 52 52 52 51 51 53 55 55 54 56 58 57 52 51 56 64 68 69 66 63 63 66 68 67 67 68 70 72 69 61 55 54 55 52 50 49 52 57 60 60 64 73 79 81 82 84 83 83 85 85 83 82 82 83 85 85 84 84 84 83 82 82 80 78 78 80 81 81 80 74 67 63 63 62 62 62 59 53 49 50 51 53 54 53 50 52
52 51 50 50 50 52 55 58 58 56 54 54 54 53 55 62 71 75 74 69 64 64 67 68 67 68 70 73 76 75 70 68 69 69 68 68 67 66 68 70 64 59 63 72 77 81 83 83 83 84 84 82 81 81 82 84 85 85 85 86 84 81 80 80 80 80 80 80 81 82 79 70 61 57 56 56 55 54 52 51 52 53 54 55 54 52 54
51 51 50 49 49 50 51 54 59 62 63 62 62 62 63 69 74 77 77 73 70 70 70 67 63 65 71 77 80 79 77 77 76 74 75 78 77 73 74 78 74 65 64 72 78 80 81 81 82 83 83 81 79 79 80 82 82 81 82 84 85 83 81 81 81 81 81 80 80 81 78 71 63 58 57 57 57 56 53 52 53 54 54 54 51 48 49
51 50 49 49 50 49 49 50 54 58 63 65 66 66 68 73 76 77 77 73 70 69 70 68 66 69 74 77 78 78 78 77 77 76 76 78 77 75 77 81 79 74 72 76 81 83 82 80 79 80 79 79 78 78 79 81 80 80 81 83 82 82 82 81 81 82 81 79 79 80 78 73 67 63 59 58 59 59 58 57 57 55 51 47 43 40 42
53 51 50 49 49 48 49 50 50 50 53 58 61 64 68 73 75 73 70 65 62 62 64 66 68 72 76 76 75 74 74 75 78 79 78 75 74 76 78 78 78 78 78 79 81 84 83 79 77 76 77 78 78 78 78 78 80 82 85 84 81 81 83 83 82 83 82 79 78 78 76 71 67 63 59 59 63 67 69 68 64 58 51 43 35 30 32
54 52 52 52 51 49 48 48 49 49 51 54 58 60 63 67 69 68 63 60 61 64 66 68 70 72 73 72 70 69 68 69 72 75 74 72 73 77 78 77 76 78 79 79 80 81 80 77 75 75 76 76 76 77 78 79 81 83 85 84 82 82 83 83 83 83 82 80 78 76 73 69 65 62 59 61 67 73 76 74 70 66 59 48 36 30 30
54 51 52 55 55 52 49 48 50 53 55 55 56 56 57 60 66 67 64 64 67 70 70 71 72 70 67 65 66 65 63 62 65 68 70 71 73 75 76 75 75 76 77 78 78 78 77 76 76 75 75 75 74 75 77 79 81 84 85 85 83 83 83 83 83 83 81 79 77 75 73 69 65 61 60 64 70 75 78 77 75 71 64 51 38 32 34
55 52 52 53 53 52 50 51 55 60 61 60 59 58 57 59 63 67 69 69 69 67 66 67 66 63 61 63 67 68 66 64 65 66 67 67 69 72 73 74 75 77 77 78 77 76 76 76 76 76 75 74 73 74 76 77 79 81 83 82 81 82 82 82 81 81 81 79 76 72 69 67 64 61 63 68 72 74 74 73 70 64 57 50 45 44 48
59 56 54 54 54 54 53 54 58 60 59 59 61 62 59 59 62 66 68 68 65 61 60 62 63 62 60 62 67 69 68 67 69 70 68 66 68 70 71 73 75 76 77 78 78 77 77 77 76 75 75 75 74 74 76 77 78 79 80 79 79 79 81 81 82 83 82 78 72 68 66 66 64 63 67 72 75 72 67 62 60 58 54 50 50 53 57
69 67 63 60 59 58 57 57 58 57 55 57 60 59 57 58 62 63 64 64 63 60 59 60 62 64 63 63 66 68 65 60 61 66 67 67 69 70 69 69 72 75 77 78 77 76 76 76 76 75 75 74 73 75 78 79 77 76 77 77 77 78 79 80 80 80 78 74 68 66 65 65 64 65 69 74 77 76 67 59 59 64 63 58 56 58 61
73 72 70 68 66 65 63 63 63 61 60 59 58 56 57 62 63 60 58 60 63 62 60 58 60 64 66 65 65 67 64 58 54 53 55 58 63 67 68 68 69 70 73 75 76 75 75 75 75 74 75 74 73 75 77 77 75 74 74 73 74 77 78 75 72 72 72 69 67 67 67 66 67 69 72 75 79 80 75 67 66 69 69 65 63 64 63
73 73 73 73 73 73 71 69 69 69 68 65 62 60 63 66 64 57 55 58 62 63 62 62 62 65 68 66 63 63 65 65 62 58 55 54 56 58 62 67 69 68 67 69 70 70 69 69 69 70 72 74 75 75 76 75 74 73 72 71 72 75 76 73 70 70 72 71 71 73 73 73 73 75 79 82 86 86 82 75 70 68 65 64 64 63 60
76 76 76 75 75 76 76 74 73 73 72 71 69 67 67 68 66 61 58 60 63 63 64 66 66 64 63 63 62 60 61 64 65 64 63 61 58 55 56 61 66 67 66 66 65 64 63 62 61 62 65 68 72 74 75 75 75 75 73 72 72 74 74 74 74 75 75 75 77 78 79 80 83 85 87 89 89 85 78 72 69 66 63 60 59 57 56
Wind_Speed
6 6 7 9 13 16 17 18 20 19 20 21 20 18 16 14 11 9 10 14 16 14 14 15 8 1 3 3 3 4 6 9 12 15 18 20 21 22 26 30 33 33 31 29 30 34 35 37 37 35 33 32 29 27 31 34 36 38 34 28 27 28 27 26 26 26 26 24 22 20 19 20 20 20 19 16 18 22 21 19 19 17 17 18 17 18 18
6 6 7 8 12 14 15 18 20 20 22 23 21 18 17 17 14 11 10 11 13 14 18 18 5 6 4 2 3 4 7 10 14 16 18 20 21 23 27 31 33 33 31 29 30 32 35 36 37 37 35 34 34 32 32 33 35 37 35 29 27 28 28 29 28 26 23 21 21 21 22 22 21 21 19 17 19 23 21 19 18 18 18 17 17 17 17
6 7 7 8 11 13 14 17 19 20 21 22 21 19 18 17 15 14 13 12 10 10 15 18 8 2 1 1 3 6 8 11 15 17 18 21 22 24 27 30 31 30 29 30 30 31 33 33 34 34 33 33 36 36 34 32 33 37 35 30 27 28 29 29 26 23 22 22 22 22 23 23 22 21 19 18 22 24 21 19 19 19 19 18 17 17 17
5 4 4 8 11 12 14 16 19 21 20 18 18 17 16 16 15 16 15 12 9 9 11 15 15 10 6 6 7 8 9 12 16 18 19 22 23 25 27 29 31 31 31 32 34 33 32 32 32 32 32 32 34 37 37 33 33 36 33 29 28 29 29 27 24 24 23 23 23 24 24 25 23 20 19 21 24 24 21 20 19 19 19 18 17 17 17
3 1 3 6 10 10 12 14 18 21 19 17 16 15 16 16 14 12 12 9 9 10 11 13 15 14 10 8 9 9 10 13 17 18 20 22 24 25 27 30 33 34 31 31 34 36 33 31 31 30 30 29 31 36 37 34 33 34 32 31 31 31 29 27 26 25 23 23 24 24 25 24 22 19 20 23 24 23 22 21 21 20 19 19 19 18 18
2 2 0 7 11 10 7 8 14 19 19 18 18 16 17 17 14 11 10 10 11 12 13 13 13 12 8 5 7 9 11 15 18 20 21 21 23 25 27 29 32 33 32 29 30 34 33 31 30 28 26 26 26 30 34 33 32 33 33 34 34 31 30 29 27 24 22 24 24 24 24 23 21 21 22 22 22 22 22 22 22 20 19 19 19 19 19
3 1 3 8 10 6 1 2 6 14 17 19 19 18 19 19 18 17 15 15 16 15 15 14 11 9 6 5 6 11 14 16 18 20 22 23 23 25 27 30 32 33 32 29 29 33 34 33 31 28 27 25 23 25 30 33 33 32 34 36 35 32 31 30 28 25 23 25 25 24 24 23 22 22 22 23 24 24 23 21 20 19 19 20 20 20 20
4 2 5 7 3 3 4 3 1 6 12 17 17 16 18 19 19 19 18 19 20 17 17 16 9 5 7 9 9 12 15 16 18 20 22 23 24 25 26 29 31 32 32 29 29 33 35 34 30 29 31 29 26 26 30 32 32 31 33 35 35 33 32 32 30 28 27 26 26 26 25 24 24 24 24 25 25 23 22 20 19 20 21 21 20 21 21
3 3 5 5 2 3 4 3 2 5 6 11 14 12 13 16 17 17 19 21 21 18 17 13 4 2 5 9 10 13 15 16 18 19 18 20 23 23 24 26 27 29 30 28 27 29 32 34 31 29 30 32 32 33 33 31 31 32 35 37 36 35 34 34 32 31 30 28 27 26 26 25 25 25 24 24 23 22 21 21 21 22 22 21 21 21 21
4 4 5 5 4 5 4 5 2 3 2 4 11 11 9 13 16 18 19 19 19 17 14 7 1 1 5 8 8 10 16 17 17 17 16 18 21 22 22 25 26 27 27 27 26 26 29 32 31 27 27 30 33 36 36 34 34 35 36 37 37 36 35 34 33 31 29 28 26 25 25 25 25 25 25 23 21 21 22 22 22 23 22 21 22 22 21
5 5 4 4 2 2 3 7 4 1 5 4 7 9 9 12 17 21 20 18 17 15 11 5 4 2 7 8 2 5 14 18 17 16 16 17 20 21 22 24 25 27 27 27 27 26 27 28 28 27 29 31 32 35 37 38 37 37 38 37 35 34 33 33 32 29 27 27 27 25 25 25 24 26 24 21 20 22 23 22 22 23 23 22 22 22 22
4 5 4 1 3 4 4 6 5 3 3 2 7 9 6 6 11 17 19 17 16 14 9 6 5 6 7 4 2 2 11 17 17 17 17 19 21 21 22 23 24 25 27 28 28 27 27 27 26 26 29 31 33 35 37 38 38 39 39 35 31 29 30 32 33 30 27 27 27 25 24 23 23 25 22 20 23 24 22 22 22 23 23 22 22 22 22
4 4 4 1 3 4 5 6 5 4 2 4 7 5 1 3 3 6 10 12 12 11 10 9 8 7 4 4 5 4 12 17 18 17 16 19 21 22 23 24 25 25 26 26 26 26 26 26 24 26 30 33 34 36 37 37 36 36 36 33 30 29 30 31 31 30 28 27 25 24 23 22 24 25 22 21 24 24 21 22 24 23 22 22 22 22 22
5 3 2 1 1 3 5 5 4 2 3 4 2 1 4 5 4 3 2 5 7 7 11 12 9 5 3 3 5 6 13 17 20 20 18 18 20 22 23 25 26 26 26 25 25 25 25 25 24 25 29 31 32 34 35 34 31 32 33 33 31 31 30 28 29 30 29 26 24 24 24 23 25 25 22 21 23 23 21 22 23 23 23 22 22 23 22
5 3 0 2 1 3 5 4 2 2 1 2 5 6 4 6 6 5 2 3 5 7 12 13 7 5 4 2 3 5 12 14 18 20 19 20 21 22 24 27 27 26 26 26 25 25 24 24 24 26 28 29 30 31 30 28 27 29 31 30 29 29 28 27 29 29 28 26 25 25 25 25 25 24 22 23 24 22 21 22 23 23 23 22 23 23 23
4 2 1 2 2 3 5 4 1 2 5 6 8 7 5 9 9 7 5 4 3 5 8 9 7 5 4 1 2 4 11 13 16 18 18 18 19 20 22 25 26 25 24 24 26 26 24 22 23 28 29 29 30 29 28 28 29 30 30 28 28 28 27 26 27 27 27 26 25 25 24 25 25 24 23 24 25 23 21 23 24 24 23 23 23 24 22
2 3 2 4 6 4 4 4 3 4 6 5 7 8 9 11 11 9 9 8 5 3 3 5 6 6 5 3 2 4 9 12 15 18 20 19 19 20 21 22 24 23 23 24 26 26 24 21 22 28 30 29 29 28 29 31 32 31 30 30 29 28 27 25 24 24 26 26 25 24 25 25 25 25 25 26 26 24 23 24 26 25 25 24 24 24 23
2 3 3 4 6 4 2 3 4 3 3 4 7 9 10 12 12 12 11 10 7 4 2 1 4 6 5 5 5 5 8 11 12 13 16 19 20 21 21 22 24 23 22 23 25 25 23 20 22 27 29 27 26 28 30 31 30 29 30 29 28 27 27 25 23 24 25 26 26 26 25 25 25 26 26 27 28 27 26 26 27 26 26 26 25 24 23
2 2 3 2 2 2 1 3 3 3 2 2 7 10 10 11 13 14 14 14 11 8 5 3 2 2 4 5 6 6 7 11 13 12 12 15 18 21 22 23 24 24 23 23 24 24 23 20 21 26 28 26 26 28 29 29 29 29 29 28 27 27 26 24 25 26 26 27 28 27 27 27 27 27 28 29 30 30 28 28 28 27 27 27 26 24 23
2 3 2 1 1 2 2 3 2 2 2 4 10 13 12 12 14 16 17 16 14 11 8 6 4 2 3 4 7 7 7 10 13 13 13 14 15 19 22 23 24 24 23 24 24 23 22 20 21 25 27 26 27 27 26 26 27 28 28 27 26 26 25 24 25 27 27 28 29 29 28 29 29 30 31 32 32 31 29 30 29 28 27 27 27 25 23
4 4 4 3 3 3 4 4 2 2 4 6 8 10 11 10 11 14 16 16 16 15 12 8 5 3 3 3 5 6 7 9 11 13 14 14 15 18 20 21 22 23 24 26 24 22 20 19 21 25 28 27 26 24 23 24 25 25 25 25 26 26 26 25 26 27 28 29 30 30 30 30 31 31 32 33 32 30 29 29 29 28 28 28 28 26 23
4 4 5 5 4 3 5 5 3 4 8 7 5 6 9 10 11 12 13 13 15 16 15 12 8 6 6 5 5 6 6 8 10 12 13 14 16 19 19 18 20 22 24 26 25 22 19 19 22 26 28 27 26 24 24 25 25 25 25 25 26 27 26 26 27 28 29 30 31 30 30 30 31 31 31 30 29 28 28 28 28 27 27 27 27 26 23
2 2 5 6 3 2 6 7 4 5 8 7 5 6 8 9 11 12 11 11 12 13 15 14 11 9 9 7 7 7 8 9 11 12 13 13 15 17 16 16 19 22 23 24 23 21 19 20 24 28 29 28 29 29 28 27 27 27 27 27 28 27 27 26 27 28 30 30 30 30 29 30 31 31 30 29 29 28 28 27 26 25 24 24 25 26 24
2 3 3 4 3 2 7 8 4 5 8 7 6 7 8 8 9 9 9 10 11 10 11 13 13 11 10 9 8 8 9 9 10 10 11 11 12 13 13 14 18 19 20 21 20 18 18 19 23 28 31 30 30 29 28 27 26 26 26 27 27 26 26 26 26 29 31 31 31 30 30 30 30 30 31 31 32 31 30 28 26 24 23 22 23 24 23
4 5 3 3 3 2 9 10 6 5 7 7 6 6 7 6 7 7 7 8 9 8 8 10 12 12 11 10 10 9 10 9 9 10 10 10 11 11 11 14 16 17 17 18 17 16 17 18 21 26 28 27 27 26 25 25 24 23 22 23 24 25 25 26 27 29 31 31 31 31 31 31 31 32 32 32 32 33 33 31 27 25 23 23 22 22 23
3 2 0 3 3 5 9 10 8 7 7 7 7 6 6 6 6 6 6 6 7 7 7 9 10 10 10 10 10 10 9 9 9 9 9 9 10 10 11 13 15 14 14 15 15 16 17 18 20 25 27 25 24 25 25 24 23 22 20 19 20 21 23 25 27 29 31 31 31 30 30 30 31 32 32 32 31 32 34 32 30 28 27 25 25 24 24
3 3 2 3 6 6 5 5 4 5 6 7 8 6 6 5 5 4 4 4 4 4 4 5 7 8 8 7 8 8 9 8 9 9 8 8 9 9 10 12 13 13 13 14 14 16 17 17 17 22 25 25 23 24 24 23 23 21 19 19 19 19 21 24 26 28 30 30 30 30 31 31 31 32 33 33 32 33 34 33 32 31 30 29 28 28 27
5 6 7 3 3 4 5 7 6 3 3 5 7 6 4 4 3 3 3 3 2 1 2 2 3 4 6 5 5 7 8 8 8 8 8 7 7 8 9 11 12 12 13 13 13 15 17 16 15 18 22 23 22 23 23 22 22 21 19 19 19 20 21 24 26 28 29 30 30 31 31 31 31 31 32 33 33 33 33 32 31 31 30 30 30 29 28
3 6 9 6 2 5 7 8 6 1 1 2 4 4 3 3 3 2 2 2 2 1 0 0 1 2 3 4 4 6 8 8 7 7 7 7 7 7 8 10 10 11 12 12 13 15 18 18 18 19 20 20 20 21 22 21 21 21 20 20 20 21 22 23 25 27 29 28 28 28 28 28 29 30 31 32 32 32 31 30 30 30 29 29 30 30 30
1 4 9 7 3 5 7 8 7 6 4 3 3 3 3 2 2 2 2 2 2 1 1 1 1 1 2 3 4 6 7 8 8 7 6 6 7 7 8 10 10 11 11 12 14 16 18 19 19 19 20 20 20 21 21 21 21 21 20 21 20 20 21 22 23 25 26 26 26 25 26 27 28 29 30 31 31 30 29 28 29 29 27 26 28 31 32
6 1 4 3 3 3 3 5 7 6 5 4 3 4 3 3 3 2 2 2 1 1 2 3 3 3 3 3 4 5 6 8 8 8 7 6 6 7 8 9 10 10 11 13 15 18 18 18 18 19 19 19 19 19 19 20 20 21 21 22 21 20 20 21 22 23 24 25 25 25 26 26 27 28 30 30 30 30 28 27 28 29 26 23 26 30 31
8 3 2 2 4 3 2 4 5 5 5 4 4 4 4 4 4 3 3 2 0 2 2 3 4 4 4 4 5 5 6 6 7 8 9 8 7 7 8 8 8 9 10 13 17 19 19 19 19 19 19 18 19 19 19 20 20 21 21 22 21 21 21 22 22 23 23 24 25 25 26 26 27 29 31 30 29 27 25 23 25 27 26 24 25 27 28
8 5 6 7 8 7 7 7 7 6 5 5 5 5 5 4 4 4 4 3 1 2 3 4 5 5 5 5 5 5 6 6 6 7 8 9 9 9 8 7 7 7 9 13 16 18 19 19 19 19 19 19 20 20 20 20 20 21 21 22 22 22 22 22 22 23 23 23 25 26 26 26 27 28 29 29 27 25 23 22 23 25 25 25 26 26 27
11 10 9 11 13 13 11 9 8 6 5 6 6 5 5 4 4 4 5 5 3 3 5 5 5 4 4 5 5 5 5 5 5 6 8 9 10 10 9 8 7 8 9 12 15 16 18 18 18 18 19 20 20 20 20 21 21 20 21 22 23 22 22 23 23 23 23 24 25 25 26 25 26 26 27 27 26 25 25 24 24 23 23 25 27 29 30
13 10 7 9 13 13 10 9 9 8 8 8 8 6 5 5 4 4 5 5 4 4 5 6 5 5 5 5 6 5 5 5 4 6 8 9 10 11 11 10 9 9 11 13 15 15 17 17 17 17 18 19 19 20 20 20 20 20 20 21 21 20 21 22 22 23 23 24 24 25 25 24 25 26 26 25 25 25 25 24 23 23 23 24 28 31 31
14 11 8 8 10 11 9 8 9 8 8 8 8 7 6 5 4 4 4 3 2 2 4 5 5 6 7 7 8 7 7 6 5 4 5 6 8 10 10 10 10 10 10 12 14 15 16 18 18 18 18 17 17 18 18 18 18 18 18 18 17 17 19 21 22 22 23 23 23 23 23 23 23 24 24 24 25 25 25 24 24 24 23 23 25 28 30
13 12 9 8 10 11 10 9 8 7 7 7 8 7 7 6 5 4 3 2 4 7 8 8 8 9 9 9 8 8 8 7 7 6 5 4 5 6 7 7 7 7 7 9 11 14 17 18 18 17 16 16 16 17 17 17 17 16 15 16 16 17 19 21 22 22 22 22 22 22 22 21 21 22 22 23 23 23 24 24 24 23 22 21 22 25 28
11 9 7 8 10 10 9 9 8 6 7 8 8 8 8 7 6 5 6 7 9 10 10 9 8 8 7 6 5 5 4 4 3 3 3 3 3 5 5 5 5 6 6 7 10 14 16 17 17 17 17 17 17 16 15 16 16 15 15 16 17 18 19 20 21 22 22 23 23 23 22 22 21 22 22 23 22 22 23 24 23 22 22 22 23 26 28
10 9 8 8 8 7 6 6 6 6 7 7 7 7 8 8 7 8 9 10 9 9 8 7 6 5 5 5 4 4 4 4 4 3 3 3 2 2 3 4 6 8 9 9 11 13 16 17 17 17 17 17 16 16 16 16 16 15 15 15 16 17 17 18 20 22 23 24 24 24 23 23 22 22 21 21 20 21 23 23 22 22 22 22 23 25 25
8 8 7 7 7 7 6 6 6 6 6 6 6 7 8 8 9 10 11 10 9 7 6 5 4 4 4 3 3 3 4 5 5 5 5 6 6 5 4 5 7 9 10 11 12 14 16 17 17 16 15 15 15 16 16 16 16 16 16 16 17 17 16 17 19 21 23 24 25 25 25 24 23 21 20 19 20 21 23 23 22 22 22 22 22 22 22
8 9 9 9 9 8 7 7 7 6 5 5 5 6 8 9 10 10 10 9 7 5 5 4 3 3 3 3 2 2 3 3 3 3 3 3 3 3 2 5 8 10 10 11 12 14 15 16 17 16 15 15 16 16 17 18 18 18 17 17 17 17 16 17 19 20 22 24 24 24 24 24 22 21 20 21 21 22 23 23 23 23 22 22 22 22 22
10 10 10 9 8 7 6 6 6 7 7 7 6 7 8 10 10 9 8 8 6 5 5 4 3 3 3 2 2 2 2 3 3 3 2 1 2 2 2 4 8 10 10 11 12 14 14 15 17 17 16 16 17 17 17 18 19 18 17 17 17 16 17 18 19 19 21 22 22 23 23 24 23 23 22 22 22 22 23 24 24 23 23 23 23 23 22
10 10 9 8 7 6 6 6 7 8 8 8 7 7 8 9 9 9 8 7 5 3 1 1 2 2 2 2 2 2 3 4 4 4 3 2 3 3 3 4 6 7 9 11 12 13 14 15 16 18 18 17 17 16 17 19 19 17 16 17 16 16 17 18 18 19 20 21 22 23 25 25 25 25 24 23 22 22 23 24 25 24 24 24 24 25 24
9 8 7 7 7 6 6 7 8 7 7 7 7 6 6 7 8 7 5 3 1 1 1 1 1 1 1 2 1 1 2 3 3 2 2 2 3 3 3 4 5 6 8 11 13 14 15 16 17 17 17 17 16 16 17 18 18 16 15 15 15 15 16 17 17 17 18 20 22 25 26 26 26 26 26 24 21 19 19 23 26 26 25 24 25 27 27
9 9 8 8 6 6 6 7 6 6 6 7 6 5 5 5 5 5 3 1 1 2 1 2 2 2 3 3 4 3 3 2 1 1 1 0 0 2 3 4 4 6 8 10 13 14 15 16 17 17 16 16 16 16 17 17 16 15 14 14 15 15 15 15 16 16 17 19 22 24 25 25 25 25 26 25 20 16 16 20 23 24 24 25 25 25 25
9 10 11 10 8 6 7 7 6 6 6 6 6 6 5 3 4 5 5 4 3 3 3 3 4 3 4 4 5 6 6 4 3 3 2 2 2 3 3 3 4 6 8 10 12 13 14 15 15 15 15 16 16 16 16 16 15 14 14 14 14 14 14 15 15 15 16 17 19 21 22 23 24 25 26 24 19 15 15 18 19 20 21 23 23 22 23
9 11 12 11 10 9 9 9 7 6 5 5 5 6 6 4 3 4 6 6 3 2 3 3 3 3 2 3 3 3 3 3 2 2 2 2 2 2 2 2 3 5 7 8 10 11 11 12 13 13 14 14 15 15 15 15 14 14 14 14 14 14 14 14 14 14 15 16 17 19 21 22 23 24 25 22 18 15 16 19 20 20 20 21 21 22 22
9 10 11 11 10 10 9 8 7 6 6 6 5 4 4 4 3 3 4 5 3 2 2 1 1 1 1 1 3 3 2 2 2 1 0 1 2 1 1 0 2 4 5 5 6 7 8 9 10 11 12 13 13 13 13 13 13 13 13 13 14 14 14 13 14 14 14 15 17 18 18 20 21 22 22 21 19 17 18 20 21 21 21 22 22 23 22
11 10 10 9 10 9 9 8 6 6 7 9 8 7 5 4 3 4 3 4 3 2 2 3 2 3 3 3 3 3 3 4 5 4 3 3 2 2 1 1 2 3 4 4 4 5 5 7 8 9 10 11 12 12 12 12 13 13 13 13 14 14 13 13 13 13 13 14 16 16 17 18 19 21 21 21 20 19 20 22 22 21 22 23 24 23 21
12 13 12 11 11 10 10 9 8 7 7 9 11 10 7 4 3 3 3 3 2 2 2 3 3 3 2 2 2 2 2 4 5 6 5 5 4 3 2 1 2 3 4 4 4 3 4 4 5 6 7 9 10 11 12 12 13 14 14 15 14 14 13 14 15 15 14 15 15 16 16 17 17 18 20 21 21 20 21 22 22 21 21 22 22 22 21
15 16 16 16 16 15 14 12 11 10 8 8 9 9 7 5 4 5 5 3 2 1 2 2 2 2 2 2 1 1 1 2 2 3 4 4 4 4 3 2 2 3 4 4 4 3 3 3 3 4 5 6 8 10 12 13 14 15 15 16 16 15 15 16 16 16 16 16 16 16 16 17 16 17 19 20 20 19 20 21 20 19 19 20 21 21 20
21 21 20 20 20 21 20 17 15 13 12 10 8 8 8 6 4 4 5 4 3 3 3 3 2 2 3 4 4 3 2 2 1 1 1 1 2 3 3 3 2 3 4 4 4 4 4 4 3 3 4 5 6 8 9 11 13 14 16 16 17 17 17 17 17 17 18 18 17 16 15 16 16 17 18 18 17 18 20 21 20 18 18 18 19 20 20
Wind_Direction
226 219 194 186 198 202 201 201 203 205 207 210 215 218 220 220 224 231 217 209 218 232 244 248 242 101 76 106 133 172 179 183 187 181 179 180 180 183 187 189 189 186 185 186 188 192 194 196 196 193 192 195 195 194 198 200 199 195 193 196 198 199 202 202 204 206 204 204 211 216 213 210 209 208 210 210 198 189 184 183 182 181 181 180 176 177 180
227 228 216 209 212 211 208 206 205 205 206 210 215 218 221 226 233 239 231 220 218 225 243 253 254 76 65 73 115 170 188 186 188 186 183 183 183 186 189 191 190 189 188 189 189 190 191 193 194 194 194 196 198 199 199 199 199 196 191 191 196 200 202 204 205 205 205 210 215 214 213 214 210 205 207 206 195 187 184 184 184 182 183 184 182 183 184
227 226 228 225 219 217 217 214 211 211 209 210 212 214 218 223 229 235 237 240 232 223 239 251 251 96 46 258 184 198 200 192 191 193 190 186 186 190 191 191 190 189 190 192 191 189 188 189 192 195 196 197 200 201 197 197 201 196 189 189 196 201 202 204 205 207 210 215 216 215 216 214 206 203 204 201 193 188 184 184 185 183 182 185 187 188 189
215 202 252 240 214 212 221 220 214 213 211 211 212 213 216 218 220 225 229 237 240 232 241 252 256 263 274 262 231 211 197 194 196 198 196 190 189 191 191 191 190 190 191 191 191 191 189 190 194 196 195 197 202 201 196 197 199 193 189 194 198 199 201 204 207 211 214 215 214 215 215 208 200 200 202 200 195 190 187 187 187 186 186 187 190 193 193
217 183 272 225 191 198 221 220 215 212 210 211 213 213 216 218 219 221 224 229 236 242 247 250 254 259 262 253 238 216 194 195 200 202 201 196 192 190 190 191 191 192 193 192 191 191 190 189 191 192 193 196 201 201 198 197 196 193 196 201 199 197 200 204 209 214 215 215 214 215 213 206 198 199 200 199 197 194 191 191 189 190 193 192 192 197 197
266 356 156 180 181 197 217 213 211 212 210 210 212 215 218 218 220 227 236 242 244 244 244 246 252 257 262 263 244 223 203 198 200 202 202 200 195 190 190 191 191 192 194 192 188 189 189 188 188 189 192 195 198 201 202 199 195 197 202 201 198 198 201 204 209 213 214 215 215 215 212 204 198 200 199 195 195 195 193 193 191 192 195 191 192 199 199
283 351 163 186 193 196 134 69 206 211 211 211 214 219 219 217 221 227 235 243 245 244 244 248 257 267 283 294 254 226 212 203 197 197 199 198 194 190 189 190 189 189 191 190 186 187 190 190 191 193 194 193 189 191 197 198 198 203 205 201 198 199 202 204 206 209 214 217 214 212 209 202 198 199 195 191 194 195 194 196 195 192 190 190 194 199 198
289 259 200 194 178 126 101 72 129 196 208 210 213 222 222 218 219 222 228 237 240 242 248 253 264 289 297 288 256 223 209 203 197 196 197 194 192 191 190 189 188 187 188 189 188 190 192 191 192 196 199 198 193 188 191 197 201 203 202 200 199 201 204 207 207 208 214 215 211 208 205 199 197 198 193 192 196 197 195 195 192 187 188 191 195 197 198
303 270 218 197 154 143 140 107 146 177 200 209 209 219 224 219 217 218 224 234 237 241 251 257 268 359 299 283 258 219 203 201 200 199 197 191 189 190 189 188 186 185 187 189 188 188 190 192 194 195 197 201 200 195 195 199 200 198 197 199 203 207 209 210 209 210 213 213 210 208 203 197 197 197 195 197 200 198 194 191 188 187 189 193 195 196 197
305 290 239 205 189 172 119 51 88 176 317 257 212 215 229 220 215 217 223 232 235 239 247 245 143 70 277 274 257 206 193 195 195 194 194 188 184 185 186 185 183 182 184 187 187 184 187 192 193 192 194 200 201 199 200 203 203 200 199 202 208 213 215 215 214 214 214 214 214 210 202 197 198 199 199 201 202 197 192 189 188 189 191 193 194 196 197
294 295 260 205 156 126 58 32 47 130 332 311 203 209 233 221 211 214 219 228 234 237 237 211 160 221 256 258 257 172 184 187 183 181 184 182 177 178 181 181 180 180 182 184 185 185 187 189 189 192 197 199 198 199 203 206 206 204 202 204 211 216 219 220 219 217 216 217 216 210 202 200 201 201 202 204 200 193 189 190 192 192 191 192 194 195 195
290 294 279 208 91 64 38 18 18 25 338 268 193 197 214 203 196 206 213 221 229 230 218 195 201 237 250 265 5 152 182 177 170 172 178 177 174 173 176 177 177 177 179 182 182 183 185 185 187 193 198 199 198 201 204 207 209 207 205 207 213 218 218 219 220 221 221 220 218 211 205 204 203 202 204 202 194 189 189 191 193 194 194 192 194 196 194
290 281 276 235 94 60 34 18 23 54 118 192 195 191 67 41 118 180 204 214 220 219 205 202 219 227 236 317 318 225 181 167 164 169 175 175 173 171 171 172 173 173 176 180 181 181 185 187 188 193 198 201 204 207 209 209 208 206 205 210 217 220 219 219 221 224 223 219 216 210 205 205 203 201 202 201 192 188 192 194 192 193 195 193 194 196 195
290 280 290 326 100 64 22 20 54 105 172 185 187 1 6 10 39 77 159 200 199 200 201 207 216 192 154 333 306 198 172 168 168 170 174 176 172 169 169 170 170 171 174 178 180 182 186 187 186 190 197 200 205 208 208 206 204 204 210 217 221 223 224 224 225 224 220 213 209 206 204 205 203 201 201 199 192 190 196 197 192 192 194 195 196 197 196
286 269 4 354 70 70 11 358 94 138 291 350 345 339 10 36 38 51 84 171 187 197 199 199 199 164 142 10 358 152 164 169 167 167 173 176 172 169 170 171 170 170 172 175 178 181 184 185 189 196 199 200 203 205 203 203 205 210 216 220 221 222 225 227 228 225 216 209 207 206 204 204 203 202 201 197 193 193 197 197 193 192 194 196 197 199 198
282 278 75 10 28 53 0 334 13 4 345 344 333 334 30 47 33 35 56 76 137 183 192 189 186 178 166 33 8 158 170 173 170 170 173 174 172 172 173 173 172 171 172 174 178 183 186 186 194 202 204 202 203 204 203 205 209 211 213 215 216 218 221 225 226 222 214 209 209 207 205 204 202 203 202 197 193 194 197 197 195 195 194 196 200 201 200
282 312 337 335 338 355 344 317 309 334 342 349 353 6 38 45 32 33 42 45 65 108 167 185 195 209 211 208 198 182 181 179 178 179 180 177 174 174 177 177 175 173 174 175 177 183 187 186 192 201 205 205 204 204 205 208 210 210 211 213 214 215 217 219 220 217 211 208 208 206 205 204 202 202 203 199 194 195 197 197 197 197 196 198 201 202 201
285 272 237 280 307 314 326 301 280 288 325 15 32 37 48 51 45 48 52 51 54 59 49 218 221 228 224 201 179 173 177 178 177 180 182 179 175 175 178 180 178 176 177 177 177 182 186 184 189 200 204 203 203 205 207 209 210 211 211 213 213 214 214 215 214 211 207 205 206 206 204 203 204 205 205 200 197 197 198 199 199 198 197 198 200 200 200
308 258 181 181 264 256 265 274 247 231 242 71 71 67 63 64 67 68 67 64 63 60 43 5 319 210 190 179 171 164 163 167 169 171 177 179 177 175 178 182 181 178 178 179 180 183 184 182 187 195 198 200 203 206 207 208 211 214 213 213 213 212 212 212 211 207 203 202 204 204 202 201 204 207 208 204 201 200 199 200 201 199 199 199 197 195 195
261 285 279 218 179 177 216 226 211 209 200 113 95 89 79 72 76 76 73 70 64 59 53 35 39 117 150 163 165 162 161 162 160 161 171 183 182 177 179 184 183 179 181 183 183 182 182 183 187 190 193 197 202 204 206 209 214 218 216 213 213 213 211 212 211 206 201 202 204 203 202 202 205 208 208 206 206 205 203 203 202 199 199 202 199 195 192
227 260 259 225 176 167 185 187 173 148 132 107 97 99 96 91 86 77 73 71 66 62 63 57 56 93 117 141 158 156 157 155 151 154 168 181 182 178 181 184 181 180 184 187 185 182 180 183 186 188 191 195 197 198 205 210 214 216 215 212 213 214 212 212 211 206 201 203 205 204 202 203 206 209 209 207 207 207 208 208 207 203 203 205 204 199 194
221 241 223 200 187 183 173 161 152 137 124 112 110 114 110 109 103 89 77 70 63 60 61 60 60 76 91 115 142 138 140 147 148 155 166 172 176 179 181 182 180 182 187 189 186 182 181 183 185 187 190 192 190 190 198 206 209 210 210 210 211 212 211 211 209 204 201 202 205 206 204 204 207 209 210 209 209 211 212 213 213 212 212 213 209 202 197
233 255 220 206 215 193 156 144 140 134 119 107 106 103 91 88 91 88 83 76 68 61 60 61 64 71 75 88 107 116 132 144 147 154 162 165 170 175 178 179 179 182 187 189 187 185 185 185 186 189 192 193 191 191 194 200 206 208 210 210 209 209 210 210 206 203 201 201 204 206 206 206 207 207 206 207 210 214 216 217 217 218 220 220 217 210 202
307 314 262 226 254 208 146 130 113 119 113 97 85 83 76 71 73 74 71 68 66 64 62 61 66 73 79 85 97 112 128 133 134 145 153 157 164 171 175 177 178 180 183 185 185 186 186 184 187 193 195 195 196 196 196 200 206 210 213 214 212 210 209 205 201 200 201 202 203 205 205 206 207 207 206 207 209 213 217 219 220 221 222 222 222 219 212
296 316 289 225 241 151 131 126 123 134 123 110 103 98 87 80 76 72 66 58 53 51 48 49 54 63 73 83 90 104 119 123 127 138 143 149 159 167 172 176 179 181 183 184 184 186 184 181 188 195 196 195 197 199 198 201 207 210 212 213 214 213 208 201 197 200 203 203 204 206 206 206 207 208 208 208 209 212 215 217 218 219 221 221 220 219 217
297 330 208 185 168 127 128 137 148 152 138 125 122 118 111 103 87 73 67 60 50 38 25 24 31 39 52 68 78 88 103 113 119 127 133 143 154 162 170 176 178 181 182 181 181 183 181 180 189 197 198 196 196 197 198 201 206 208 208 209 211 211 206 199 197 201 203 204 206 207 208 208 209 211 211 210 209 211 213 213 213 214 215 215 214 214 214
106 82 67 158 155 128 94 86 101 119 124 120 117 116 115 106 87 68 60 54 45 31 18 16 20 26 39 58 74 84 95 102 110 120 131 142 148 157 168 172 174 178 178 177 180 183 180 178 184 193 197 196 195 196 198 201 204 205 207 208 208 206 204 202 201 202 202 204 207 209 209 210 211 213 214 213 212 214 214 212 212 213 212 210 210 209 209
100 56 24 15 172 144 93 85 79 45 44 95 107 107 104 98 88 80 73 61 48 33 24 23 25 32 41 56 82 95 99 102 109 121 131 138 145 154 160 163 168 173 173 174 179 182 182 182 183 189 193 194 194 194 196 198 201 203 205 207 204 202 205 207 206 205 204 206 209 210 211 212 214 217 217 216 214 215 216 215 214 214 213 211 209 208 207
70 17 9 15 128 159 142 136 142 162 357 88 102 100 102 112 113 102 84 74 66 64 74 35 60 64 63 77 101 112 111 110 112 121 133 141 146 151 155 159 165 168 169 173 179 183 188 193 195 194 192 190 191 194 196 199 203 204 203 202 200 200 203 206 207 207 207 209 212 213 214 216 218 219 218 216 214 215 217 217 216 216 215 214 213 210 206
216 338 360 21 101 156 160 160 165 167 158 138 113 103 106 118 117 102 90 81 67 80 188 187 160 144 126 112 120 130 131 128 128 130 136 143 147 151 155 159 162 166 171 178 183 186 189 191 191 192 192 191 193 197 200 202 205 206 203 200 199 198 200 202 204 206 209 212 215 215 215 217 219 218 216 215 214 215 215 216 216 216 213 213 215 212 205
183 187 3 36 118 152 170 162 154 149 144 139 127 116 107 98 95 87 71 61 60 172 192 186 182 186 181 163 150 146 140 137 138 139 140 144 149 153 158 162 166 172 176 178 179 181 182 181 183 188 192 192 193 196 197 198 201 204 204 202 200 198 199 200 201 204 207 211 213 213 214 216 216 215 213 212 212 213 214 215 217 216 210 209 216 214 207
150 160 283 236 155 152 209 184 158 146 150 151 135 117 102 87 79 68 48 28 311 229 212 201 197 195 189 180 170 162 154 149 146 144 144 148 150 150 155 164 170 175 177 177 177 178 179 180 184 187 187 186 189 192 193 194 199 202 202 202 200 198 197 199 203 205 207 208 209 210 211 213 214 214 213 212 211 211 210 210 215 216 210 207 213 212 208
152 193 252 235 201 202 218 207 184 169 166 161 141 123 113 96 77 59 38 17 319 259 241 222 212 205 198 189 184 181 177 169 161 156 154 155 156 158 158 161 165 167 172 177 179 179 180 183 185 184 182 184 190 192 191 193 196 198 198 200 201 198 195 197 203 206 207 206 206 208 211 212 212 212 212 210 209 208 206 206 211 215 212 211 212 211 210
180 196 212 213 210 211 209 196 182 171 168 167 156 139 129 120 98 62 32 13 331 265 246 232 218 205 193 186 183 181 177 168 168 174 170 164 165 169 168 165 165 165 170 177 182 185 188 189 187 184 185 188 191 192 191 193 194 193 194 200 203 198 193 195 200 203 205 206 206 208 211 211 211 211 212 211 210 211 212 214 217 219 218 216 215 214 214
201 206 213 220 220 217 205 188 180 177 179 182 174 158 145 135 111 70 36 13 333 271 242 224 210 196 183 172 162 156 157 160 175 191 188 177 174 177 176 176 178 179 181 183 185 190 194 193 186 184 188 192 193 193 193 193 193 192 196 203 204 198 194 196 198 201 204 205 205 207 208 208 209 211 212 212 212 214 216 218 220 221 220 217 215 215 215
212 225 247 244 218 199 187 183 184 183 186 186 179 166 159 149 123 86 49 15 331 222 185 172 162 151 142 135 127 120 121 124 130 152 173 177 178 177 174 173 175 180 186 190 189 189 192 191 187 186 190 193 194 195 194 192 192 195 200 206 206 199 196 198 200 202 203 203 203 205 206 206 207 209 209 210 213 216 217 218 219 220 220 219 216 216 215
209 227 243 229 196 180 172 172 177 183 190 188 179 171 165 154 134 112 96 103 136 139 130 120 117 118 117 112 104 97 96 97 95 98 108 124 147 160 162 164 168 169 178 192 193 189 187 188 187 188 192 195 197 197 194 189 188 193 201 206 204 199 196 197 200 202 203 202 203 204 205 204 206 209 209 210 213 216 217 218 218 219 219 218 215 214 216
190 193 186 173 169 169 167 163 163 172 185 187 182 175 166 155 144 139 140 141 139 132 122 114 110 106 98 89 77 66 61 61 62 67 77 84 102 125 135 145 159 163 174 196 198 190 187 187 187 190 196 199 200 198 195 190 190 198 207 211 208 203 199 199 200 201 202 203 204 205 204 203 205 209 210 210 211 214 217 219 219 218 218 218 218 217 217
148 141 136 136 140 147 154 157 159 162 165 168 173 172 162 153 152 154 154 154 149 137 122 110 100 87 75 66 51 19 350 337 329 311 298 290 270 205 174 183 189 187 189 195 194 189 188 188 188 192 199 202 202 201 198 194 196 204 212 215 214 210 205 203 204 205 205 205 205 205 205 205 207 210 213 212 212 214 217 217 216 216 217 219 220 218 216
133 130 128 125 125 124 123 124 132 142 146 148 156 162 158 155 158 158 156 157 155 142 116 94 80 65 53 53 48 11 336 321 308 293 282 275 271 265 252 241 232 219 207 200 194 190 189 188 186 190 197 201 202 202 201 198 201 206 210 213 215 211 205 205 209 211 211 211 209 207 208 209 209 212 215 217 219 222 220 215 214 215 217 218 218 216 212
137 134 130 124 119 115 110 102 101 110 125 139 153 161 161 161 161 155 147 147 145 125 93 74 58 39 27 27 25 357 337 332 318 298 288 276 267 258 242 244 245 238 223 211 203 197 192 187 183 184 189 194 195 194 193 194 198 201 204 210 214 210 205 207 211 213 215 217 215 212 211 211 210 211 215 218 222 224 221 217 216 217 218 218 218 215 210
138 133 128 123 118 114 111 106 102 101 106 114 127 143 156 161 160 149 136 131 121 95 74 52 26 16 19 21 7 326 306 305 300 295 293 258 217 195 193 242 246 237 223 212 204 198 194 189 183 180 183 189 192 189 187 190 195 198 201 209 214 211 208 210 213 215 218 218 214 209 209 210 209 211 214 217 221 224 222 219 219 221 221 221 220 216 212
143 136 129 126 119 108 106 112 111 106 101 100 105 118 139 150 150 140 128 120 105 81 53 6 14 27 24 7 357 319 292 293 294 293 294 283 249 213 205 231 240 229 212 203 196 191 190 190 188 185 185 187 189 189 189 192 195 197 202 209 212 210 210 213 213 214 219 219 212 206 207 208 209 212 216 219 224 228 228 225 224 225 224 225 224 219 214
149 143 136 130 120 113 117 124 120 111 102 99 100 107 121 136 142 141 138 130 86 346 288 261 90 63 12 351 8 344 295 294 289 287 303 316 309 283 255 241 231 216 203 194 186 182 184 189 193 193 189 186 187 191 194 196 195 194 199 208 210 207 209 215 214 211 214 215 211 207 207 208 208 211 216 220 225 233 237 234 231 228 226 226 226 223 218
163 158 150 140 128 119 122 126 125 118 108 103 103 107 114 133 150 156 155 143 102 92 116 148 135 93 40 25 28 21 4 344 293 270 274 161 257 283 276 251 222 208 201 192 185 183 187 191 193 193 191 189 190 194 196 196 195 194 197 205 207 204 205 211 212 210 211 213 212 210 210 209 209 212 216 220 226 238 244 240 234 230 227 226 226 224 220
172 170 165 160 156 147 140 140 142 138 128 118 110 102 98 119 161 168 163 147 110 88 103 129 120 80 33 11 3 358 356 349 322 285 267 237 228 247 265 254 222 206 200 194 191 192 194 194 193 194 194 195 196 197 196 196 196 196 197 201 202 202 203 207 208 208 210 212 212 211 211 211 211 214 217 221 228 238 239 232 226 224 225 226 226 224 222
166 172 174 174 173 168 165 164 159 151 150 149 126 95 85 91 121 152 167 170 151 104 110 116 89 50 7 339 341 345 344 337 316 285 278 295 287 274 272 248 208 194 191 194 199 202 201 200 199 200 201 200 199 198 197 198 198 198 200 201 201 201 203 206 206 206 209 211 211 211 212 213 214 216 219 223 229 235 232 224 218 218 223 227 227 223 220
159 165 171 176 179 178 177 177 172 166 173 178 160 119 113 129 124 120 147 166 163 146 150 152 98 86 134 62 22 19 32 49 54 75 68 31 21 10 357 213 183 178 179 189 199 204 205 206 208 210 210 209 206 200 198 200 202 201 201 204 204 202 203 205 204 204 207 211 212 213 213 214 215 217 219 223 230 233 226 218 216 220 225 226 223 220 218
133 133 140 154 164 166 165 165 164 168 176 177 170 163 163 160 132 111 128 153 159 155 159 160 152 146 135 103 62 47 64 81 86 92 94 84 73 56 37 80 138 154 165 179 194 202 205 210 217 220 219 218 213 206 202 206 210 208 206 207 206 204 205 206 205 205 209 213 214 215 216 216 218 219 221 225 233 234 226 218 219 224 226 223 220 218 217
121 121 120 122 128 133 136 134 130 131 147 163 170 171 167 155 140 142 153 157 157 154 152 150 153 157 144 103 70 62 81 94 95 92 85 80 78 71 63 87 130 148 159 171 184 195 199 207 222 230 231 229 224 217 214 215 216 215 214 212 209 207 209 211 209 209 212 213 213 214 216 217 219 222 226 231 236 236 229 222 223 227 226 221 218 218 219
100 102 101 101 102 104 107 109 108 107 116 141 162 167 161 154 172 194 197 189 171 153 137 130 139 165 190 204 192 154 132 122 110 100 91 87 81 74 69 78 117 141 147 154 164 175 182 191 208 223 231 235 234 231 229 226 222 219 218 215 212 211 215 216 215 214 215 216 216 217 219 220 224 229 232 235 237 235 227 221 222 225 226 224 221 221 224
86 88 89 89 89 88 89 91 93 92 93 103 128 146 146 140 154 194 209 213 211 190 157 131 124 174 197 204 209 209 202 198 193 172 141 121 97 79 71 74 102 134 144 151 164 176 182 188 197 206 210 216 224 231 236 235 230 227 226 223 220 220 222 222 220 220 221 222 221 221 222 224 226 228 230 232 232 226 219 216 218 223 226 227 227 229 231